Fort Knox, KY

1:15 PM EDT on July 24, 2017 (GMT -0400)
Godman Army Air Field

Weather History for KFTK - June, 2013

Change the Weather History Date:

Monday, June 24, 2013

  Actual Average Record
Temperature  
Mean Temperature 72 °F -  
Max Temperature 77 °F 81 °F 91 °F (1997)
Min Temperature 68 °F 63 °F 57 °F (2001)
Cooling Degree Days 8    
Growing Degree Days 22 (Base 50)    
Moisture  
Dew Point 68 °F    
Average Humidity 88    
Maximum Humidity 96    
Minimum Humidity 77    
Precipitation  
Precipitation 0.32 in - - ()
Sea Level Pressure  
Sea Level Pressure 30.12 in    
Wind  
Wind Speed 3 mph (SSW)    
Max Wind Speed 12 mph    
Max Gust Speed -    
Visibility 9 miles    
Events Rain , Thunderstorm    
Averages and records for this station are not official NWS values.
T = Trace of Precipitation, MM = Missing Value Source: NWS Daily Summary

Daily Weather History Graph

Daily Weather History Graph

Search for Another Location

Airport or City:

Trip Planner

Search our weather history database for the weather conditions in past years. The results will help you decide how hot, cold, wet, or windy it might be!

Date:

Astronomy

Jun. 24, 2013 Rise Set
Actual Time 6:22 AM EDT 9:10 PM EDT
Civil Twilight 5:51 AM EDT 9:41 PM EDT
Nautical Twilight 5:11 AM EDT 10:20 PM EDT
Astronomical Twilight 4:27 AM EDT 11:05 PM EDT
Moon 10:14 PM EDT 7:47 AM EDT
Length of Visible Light 15h 50m
Length of Day
14h 47m
Full, 98% of the Moon is Illuminated
Jun 24
Full
Jun 30
Last Quarter
Jul 8
New
Jul 15
First Quarter
Jul 22
Full

Hourly Weather History & Observations

Time (EDT) Temp. Dew Point Humidity Pressure Visibility Wind Dir Wind Speed Gust Speed Precip Events Conditions
12:27 AM 68.0 °F 64.4 °F 88% 30.12 in 10.0 mi East 1.2 mph - N/A Rain Light Rain
12:37 AM 69.8 °F 64.4 °F 83% 30.12 in 10.0 mi ENE 1.2 mph - N/A   Clear
12:58 AM 69.6 °F 64.9 °F 85% 30.10 in 10.0 mi East 3.5 mph - 0.00 in   Clear
1:28 AM 69.8 °F 66.2 °F 88% 30.11 in 10.0 mi SE 2.3 mph - N/A Rain Light Rain
1:42 AM 69.8 °F 64.4 °F 83% 30.10 in 9.0 mi South 2.3 mph - N/A   Clear
1:45 AM 69.8 °F 64.4 °F 83% 30.10 in 10.0 mi South 2.3 mph - N/A Rain Light Rain
1:58 AM 70.0 °F 65.1 °F 85% 30.09 in 10.0 mi SSE 4.6 mph - 0.00 in Rain Light Rain
2:39 AM 69.8 °F 66.2 °F 88% 30.09 in 9.0 mi SSE 1.2 mph - N/A   Partly Cloudy
2:46 AM 68.0 °F 66.2 °F 94% 30.09 in 9.0 mi SE 2.3 mph - N/A Rain Light Rain
2:58 AM 69.3 °F 65.7 °F 88% 30.08 in 9.0 mi SSE 2.3 mph - 0.00 in Rain Light Rain
3:03 AM 68.0 °F 66.2 °F 94% 30.09 in 10.0 mi South 2.3 mph - N/A   Mostly Cloudy
3:58 AM 68.9 °F 66.7 °F 93% 30.09 in 10.0 mi South 3.5 mph - 0.00 in   Overcast
4:58 AM 70.3 °F 68.0 °F 92% 30.08 in 10.0 mi South 4.6 mph - N/A   Overcast
5:58 AM 70.3 °F 68.2 °F 93% 30.09 in 10.0 mi South 5.8 mph - N/A   Overcast
6:58 AM 70.9 °F 68.4 °F 92% 30.10 in 10.0 mi South 4.6 mph - N/A   Overcast
7:58 AM 72.3 °F 68.9 °F 89% 30.12 in 10.0 mi South 4.6 mph - N/A   Scattered Clouds
8:58 AM 74.5 °F 69.3 °F 84% 30.14 in 10.0 mi WSW 8.1 mph - N/A   Scattered Clouds
9:58 AM 73.4 °F 69.4 °F 87% 30.15 in 10.0 mi Calm Calm - N/A   Mostly Cloudy
9:59 AM 73.4 °F 69.8 °F 88% 30.16 in 10.0 mi Calm Calm - N/A Rain Light Rain
10:25 AM 75.2 °F 69.8 °F 83% 30.17 in 10.0 mi West 2.3 mph - N/A   Scattered Clouds
10:42 AM 75.2 °F 68.0 °F 78% 30.17 in 1.0 mi WSW 6.9 mph - N/A Rain Rain Showers
10:43 AM 75.2 °F 69.8 °F 83% 30.18 in 3.0 mi West 6.9 mph - N/A   Haze
10:44 AM 75.2 °F 69.8 °F 83% 30.17 in 1.5 mi WNW 5.8 mph - N/A Rain Light Rain
10:45 AM 75.2 °F 69.8 °F 83% 30.17 in 2.0 mi NW 6.9 mph - N/A Rain Light Rain Showers
10:48 AM 73.4 °F 69.8 °F 88% 30.15 in 3.0 mi NNW 5.8 mph - N/A Rain Light Rain Showers
10:58 AM 72.3 °F 70.3 °F 93% 30.17 in 5.0 mi Calm Calm - 0.24 in Rain Light Rain
11:01 AM 71.6 °F 69.8 °F 94% 30.17 in 9.0 mi Calm Calm - N/A   Mostly Cloudy
11:47 AM 77.0 °F 71.6 °F 83% 30.17 in 10.0 mi WSW 6.9 mph - N/A Rain , Thunderstorm Light Thunderstorms and Rain
11:58 AM 75.4 °F 70.7 °F 85% 30.17 in 5.0 mi WSW 11.5 mph - 0.00 in Rain , Thunderstorm Light Thunderstorms and Rain
12:14 PM 71.6 °F 69.8 °F 94% 30.16 in 5.0 mi SW 2.3 mph - N/A Rain Light Rain
12:19 PM 71.6 °F 69.8 °F 94% 30.16 in 3.0 mi SE 1.2 mph - N/A Rain Light Rain
12:58 PM 72.0 °F 70.7 °F 96% 30.15 in 7.0 mi WSW 9.2 mph - 0.08 in Rain Light Rain
1:53 PM 73.4 °F 69.8 °F 88% 30.15 in 10.0 mi SSW 5.8 mph - N/A   Overcast
1:58 PM 73.4 °F 70.2 °F 90% 30.15 in 10.0 mi SW 5.8 mph - 0.00 in   Overcast
2:08 PM 73.4 °F 69.8 °F 88% 30.14 in 10.0 mi WSW 4.6 mph - N/A   Mostly Cloudy
2:18 PM 75.2 °F 69.8 °F 83% 30.14 in 10.0 mi Calm Calm - N/A   Mostly Cloudy
2:20 PM 75.2 °F 69.8 °F 83% 30.13 in 10.0 mi Variable 2.3 mph - N/A Rain Light Rain
2:33 PM 75.2 °F 69.8 °F 83% 30.14 in 10.0 mi West 5.8 mph - N/A   Mostly Cloudy
2:38 PM 75.2 °F 69.8 °F 83% 30.13 in 10.0 mi West 3.5 mph - N/A   Mostly Cloudy
2:43 PM 75.2 °F 69.8 °F 83% 30.13 in 10.0 mi WSW 5.8 mph - N/A   Mostly Cloudy
2:58 PM 75.9 °F 69.4 °F 80% 30.12 in 10.0 mi SSW 4.6 mph - 0.00 in   Mostly Cloudy
3:13 PM 77.0 °F 69.8 °F 78% 30.13 in 10.0 mi Variable 3.5 mph - N/A   Mostly Cloudy
3:55 PM 76.6 °F 69.1 °F 77% 30.07 in 10.0 mi West 4.6 mph - 0.00 in   Overcast
4:55 PM 73.9 °F 69.4 °F 86% 30.07 in 10.0 mi SW 8.1 mph - N/A   Overcast
5:40 PM 73.4 °F 68.0 °F 83% 30.09 in 10.0 mi WSW 9.2 mph - N/A   Mostly Cloudy
5:55 PM 73.6 °F 68.2 °F 83% 30.09 in 10.0 mi West 8.1 mph - N/A   Mostly Cloudy
6:56 PM 74.8 °F 68.2 °F 80% 30.07 in 10.0 mi Calm Calm - N/A   Mostly Cloudy
7:55 PM 74.5 °F 68.0 °F 80% 30.07 in 10.0 mi South 5.8 mph - N/A   Mostly Cloudy
8:55 PM 72.0 °F 68.5 °F 89% 30.09 in 10.0 mi South 3.5 mph - N/A   Mostly Cloudy
9:58 PM 70.2 °F 68.4 °F 94% 30.08 in 10.0 mi South 2.3 mph - N/A   Clear
9:59 PM 69.8 °F 68.0 °F 94% 30.08 in 10.0 mi SSE 3.5 mph - N/A   Clear
10:10 PM 69.8 °F 68.0 °F 94% 30.07 in 10.0 mi SE 5.8 mph - N/A   Clear
10:58 PM 69.6 °F 67.8 °F 94% 30.08 in 10.0 mi SE 2.3 mph - 0.00 in   Clear
11:12 PM 69.8 °F 68.0 °F 94% 30.09 in 10.0 mi East 1.2 mph - N/A Rain Light Rain
11:22 PM 69.8 °F 68.0 °F 94% 30.09 in 10.0 mi ESE 1.2 mph - N/A   Clear
11:28 PM 69.8 °F 68.0 °F 94% 30.09 in 10.0 mi ESE 3.5 mph - N/A Rain Light Rain
11:37 PM 69.8 °F 68.0 °F 94% 30.09 in 10.0 mi SE 3.5 mph - N/A   Clear
11:58 PM 68.7 °F 67.6 °F 96% 30.08 in 10.0 mi ESE 4.6 mph - 0.00 in   Clear